Location: Enikep?du
(16.5133°N, 80.7066°E)
Time: 01:56:20
(UTC+00:00)

STARLINK-1037 - Pass Details

Date: 20 January 2020
Orbit: 548 x 551 km, 53.0° (Epoch: 19 February)

Event Time Altitude Azimuth Distance (km) Brightness Sun altitude
Exits shadow 22:44:15 10° 149° (SSE) 1,829 6.7 -34.1°
Reaches altitude 10° 22:44:23 10° 147° (SSE) 1,807 6.7 -34.1°
Drops below altitude 10° 22:47:54 10° 96° (E) 1,809 7.1 -33.2°
Enters shadow 00:01:55 -40° 220° (SW) 8,999 9.7 -16.1°
Maximum altitude 00:25:24 37° 308° (NW) 853 4.1 -10.8°
